Location: Worth Mountain WMA
(34.9569°N, 81.4819°W)
Time: 00:50:02
(UTC-04:00)

Cosmos 44 Rocket - Pass Details

Date: 18 August 2017
Orbit: 660 x 731 km, 65.1° (Epoch: 23 September)

Event Time Altitude Azimuth Distance (km) Brightness Sun altitude
Rises 21:11:02 0° 334° (NNW) 3,007 7.5 -12.5°
Reaches altitude 10° 21:13:22 10° 338° (NNW) 2,098 6.5 -12.9°
Maximum altitude 21:18:05 62° 59° (ENE) 760 3.3 -13.8°
Enters shadow 21:21:15 21° 136° (SE) 1,521 4.5 -14.3°
